Location: Bakov nad Jizerou
(50.4784°N, 14.9394°E)
Time: 15:30:34
(UTC+00:00)

Cosmos 2061 Rocket - Pass Details

Date: 16 June 2021
Orbit: 965 x 1013 km, 82.9° (Epoch: 02 August)

Event Time Altitude Azimuth Distance (km) Brightness Sun altitude
Rises 21:15:13 0° 348° (NNW) 3,762 8.8 -12.5°
Reaches altitude 10° 21:17:48 10° 346° (NNW) 2,808 7.8 -12.7°
Maximum altitude 21:24:10 65° 266° (W) 1,108 4.4 -13.1°
Enters shadow 21:29:46 14° 187° (S) 2,517 5.6 -13.4°
